Regional Weather Roundup
Issued by NWS

Home | Current Version | Previous Version | Text Only | Print | Product List | Glossary Off
Versions: 1 2 3 4 5 6 7 8 9 10 11 12 13 14 15 16 17 18 19 20 21 22 23 24 25 26 27 28 29 30 31 32 33 34 35 36 37 38 39 40 41 42 43 44 45 46 47 48 49 50

000
ASUS43 KMPX 201001
RWRMN
WEATHER ROUNDUP FOR MINNESOTA
NATIONAL WEATHER SERVICE TWIN CITIES/CHANHASSEN MN
400 AM CST SAT DEC 20 2014


NOTE: "FAIR" INDICATES FEW OR NO CLOUDS BELOW 12,000 FEET WITH NO
SIGNIFICANT WEATHER AND/OR OBSTRUCTIONS TO VISIBILITY. N/A MEANS
CURRENT SKY AND/OR WEATHER CONDITIONS ARE NOT AVAILABLE.

MNZ060>063-068>070-201100-
   Twin Cities Metro

CITY           SKY/WX    TMP DP  RH WIND       PRES   REMARKS
TWIN CITIES    CLOUDY    29  25  85 S8        30.16F FOG     WCI  21
ST PAUL        CLOUDY    29  26  89 S12       30.18S WCI  19
CRYSTAL        CLOUDY    30  26  85 S10       30.14F WCI  21
BLAINE         CLOUDY    30  28  93 S10       30.15S WCI  21
LAKEVILLE      CLOUDY    28  27  93 S5        30.16S FOG     WCI  23
EDEN PRAIRIE   CLOUDY    30  26  85 S9        30.14S FOG     WCI  22
SOUTH ST PAUL  CLOUDY    31  26  84 S7        30.17S WCI  24
LAKE ELMO      CLOUDY    30  27  86 S7        30.17F WCI  23
$$
MNZ001>005-007-008-013>017-022>024-027-028-201100-
   Northwest Minnesota

CITY           SKY/WX    TMP DP  RH WIND       PRES   REMARKS
BEMIDJI        CLOUDY    28  28  99 S5        30.02S FOG     WCI  23
HALLOCK        CLOUDY    28  27  93 CALM      30.00S FOG
ROSEAU         CLOUDY    28  23  80 SE6       30.00F HAZE    WCI  22
WARROAD        CLOUDY    27  21  80 S5        30.02S FOG     WCI  21
THIEF RVR FALL CLOUDY    28  28 100 S7        30.01S WCI  21
CROOKSTON      CLOUDY    28  28 100 S10       30.02F FOG     WCI  19
FOSSTON        CLOUDY    28  28 100 S10       30.02S FOG     WCI  19
DETROIT LAKES  CLOUDY    30  30 100 SW9       30.03S FOG     WCI  22
MOORHEAD       CLOUDY    30  30 100 S8        30.05S WCI  23
PARK RAPIDS    CLOUDY    30  28  92 S10       30.03S FOG     WCI  21
MAHNOMEN       CLOUDY    29  29  99 S10       30.02S FOG     WCI  20
$$
MNZ006-009>011-018-025>026-201100-
   North Central Minnesota

CITY           SKY/WX    TMP DP  RH WIND       PRES   REMARKS
BAUDETTE       CLOUDY    26  23  88 S3        30.02F
FLAG ISLAND    CLOUDY    25  25 100 S12       30.01F FOG     WCI  14
INTL FALLS     LGT SNOW  25  23  92 S6        30.06S FOG     WCI  18
WASKISH        LGT SNOW  27  27 100 CALM      30.04S
BIG FORK       LGT SNOW  27  25  93 SE3       30.06S
LONGVILLE      CLOUDY    28  28 100 S5        30.05S FOG     WCI  23
GRAND RAPIDS   CLOUDY    27  25  93 SE7       30.06F WCI  19
CRANE LAKE     LGT SNOW  25  23  93 CALM      30.11S
ORR            MIX PCPN  25  21  86 SE3       30.06S
COOK           LGT SNOW  25  25 100 SE3       30.09S
WALKER         CLOUDY    28  28  98 S7        30.03F FOG     WCI  21
$$
MNZ012-019>021-037-201100-
   Northeast Minnesota

CITY           SKY/WX    TMP DP  RH WIND       PRES   REMARKS
DULUTH         LGT SNOW  25  22  88 S7        30.11F FOG     WCI  17
ELY            LGT SNOW  25  25 100 S3        30.10S
HIBBING        LGT SNOW  26  23  88 S5        30.09S FOG     WCI  20
EVELETH        LGT SNOW  27  25  93 S6        30.10F WCI  20
DULUTH HARBOR  FLURRIES  28  25  86 CALM      30.17F
SILVER BAY     MIX PCPN  28  27  93 CALM      30.13S
GRAND MARAIS     N/A     32  26  78 SW8       30.18S WCI  25
G MARAIS ARPRT CLOUDY    23  19  86 CALM      30.12S FOG
$$
MNZ029>031-032-039>041-046>048-054>057-064-201100-
   West Central Minnesota

CITY           SKY/WX    TMP DP  RH WIND       PRES   REMARKS
FERGUS FALLS   CLOUDY    28  28 100 S8        30.07S FOG     WCI  20
WHEATON        CLOUDY    28  27  93 S5        30.07S WCI  23
MORRIS         CLOUDY    30  28  93 S10       30.05F FOG     WCI  21
ALEXANDRIA     CLOUDY    30  27  88 S15       30.06S FOG     WCI  19
ELBOW LAKE     CLOUDY    29  28  96 S12       30.04F FOG     WCI  20
WADENA         CLOUDY    28  28 100 S9        30.04F FOG     WCI  20
GLENWOOD       CLOUDY    28  28 100 S14G24    30.07S FOG     WCI  17
APPLETON       CLOUDY    32  28  86 S5        30.07S WCI  27
BENSON         CLOUDY    30  28  93 SW7       30.08R FOG     WCI  23
ORTONVILLE     CLOUDY    30  27  86 S5        30.05F WCI  25
MADISON        CLEAR     34  32  93 S6        30.07R WCI  29
WILLMAR        CLOUDY    32  28  86 S5        30.09F FOG     WCI  27
$$
MNZ033>034-036-042>043-049>051-058-059-201100-
   Central Minnesota

CITY           SKY/WX    TMP DP  RH WIND       PRES   REMARKS
ST CLOUD       CLOUDY    32  29  88 S9        30.11S FOG     WCI  24
SAUK CENTRE    CLOUDY    30  28  92 S13       30.08S FOG     WCI  20
PAYNESVILLE    CLOUDY    28  27  96 SE9       30.09S FOG     WCI  20
AITKIN         LGT SNOW  30  25  80 S5        30.08S WCI  25
PINE RIVER     CLOUDY    28  28 100 S5        30.09S FOG     WCI  23
BRAINERD       CLOUDY    29  28  96 S9        30.08S FOG     WCI  20
STAPLES        CLOUDY    28  28 100 S8        30.06S FOG     WCI  20
LONG PRAIRIE   CLOUDY    30  28  93 S13       30.07S FOG     WCI  20
LITTLE FALLS   CLOUDY    32  28  86 S8        30.09S FOG     WCI  25
LITCHFIELD     CLOUDY    32  32 100 S3        30.11S FOG
BUFFALO        CLOUDY    30  28  92 SE7       30.14S FOG     WCI  23
MAPLE LAKE     CLOUDY    31  31  97 SE6       30.13S FOG     WCI  26
$$
MNZ037-044-045-052-053-201100-
   East Central Minnesota

CITY           SKY/WX    TMP DP  RH WIND       PRES   REMARKS
PRINCETON      CLOUDY    30  28  93 SE6       30.13R FOG     WCI  24
MORA           CLOUDY    28  25  86 S6        30.15S WCI  22
CAMBRIDGE      CLOUDY    30  23  74 SE5       30.12S HAZE    WCI  25
RUSH CITY      CLOUDY    28  25  87 S6        30.15R WCI  22
MOOSE LAKE     CLOUDY    28  27  93 S3        30.11S FOG
HINCKLEY       CLOUDY    30  27  86 CALM      30.14S
CLOQUET        CLOUDY    27  25  93 CALM      30.12R FOG
MCGREGOR       CLOUDY    28  28 100 S7        30.10S WCI  21
$$
MNZ071>073-080-081-089-090-097-098-201100-
   Southwest Minnesota

CITY           SKY/WX    TMP DP  RH WIND       PRES   REMARKS
MONTEVIDEO     CLOUDY    30  30 100 SW9       30.08F FOG     WCI  22
GRANITE FALLS  CLOUDY    31  28  90 S12       30.09F WCI  22
CANBY          CLOUDY    32  29  91 S3        30.07S
MARSHALL       CLOUDY    30  27  86 SW15      30.07F WCI  19
REDWOOD FALLS  CLOUDY    32  28  85 S13       30.10S WCI  22
OLIVIA         CLOUDY    32  30  93 S10       30.10R FOG     WCI  24
PIPESTONE      CLOUDY    30  28  93 SW3       30.04S FOG
WINDOM         CLOUDY    30  28  93 S7        30.09F FOG     WCI  23
WORTHINGTON    CLOUDY    28  28 100 S10       30.07F WCI  19
JACKSON        CLOUDY    30  28  93 S9        30.10F FOG     WCI  22
TRACY          CLOUDY    32  30  92 S12       30.07F WCI  23
SLAYTON        CLOUDY    30  30 100 S5        30.06F FOG     WCI  25
$$
MNZ065>067-074>077-082>085-091>093-201100-
   South Central Minnesota

CITY           SKY/WX    TMP DP  RH WIND       PRES   REMARKS
MANKATO        CLOUDY    30  27  86 S8        30.14S WCI  23
NEW ULM        CLOUDY    30  30 100 S9        30.12S FOG     WCI  22
ST JAMES       CLOUDY    32  30  93 S13       30.13F FOG     WCI  22
FAIRMONT       CLOUDY    30  25  80 SW9       30.13S WCI  22
GLENCOE        CLOUDY    32  31  99 SE7       30.12F FOG     WCI  25
FARIBAULT      CLOUDY    28  27  93 S6        30.16S FOG     WCI  22
OWATONNA       MOCLDY    28  27  93 SE9       30.16S FOG     WCI  20
WASECA         CLOUDY    30  28  93 S8        30.16S FOG     WCI  23
ALBERT LEA     FOG       28  28 100 S7        30.14F VSB 1   WCI  21
$$
MNZ078>079-086>088-094>096-201100-
   Southeast Minnesota

CITY           SKY/WX    TMP DP  RH WIND       PRES   REMARKS
ROCHESTER      CLOUDY    27  25  92 S9        30.17S FOG     WCI  18
RED WING       CLOUDY    30  25  80 CALM      30.18F
STANTON        CLOUDY    31  26  83 S7        30.16S WCI  24
DODGE CENTER   CLOUDY    28  27  93 S10       30.15F FOG     WCI  19
WINONA         CLOUDY    30  25  80 SE3       30.22F
AUSTIN         CLOUDY    27  27 100 S6        30.16S FOG     WCI  20
PRESTON        LGT SNOW  26  24  92 S7        30.18F WCI  19
$$
ABBREVIATIONS USED IN REMARKS
   TC - TEMPERATURES IN CELSIUS
  WCI - WIND CHILL INDEX
   HX - HEAT INDEX
  VSB - VISIBILITY
$$


USA.gov is the U.S. government's official web portal to all federal, state and local government web resources and services.